Content
SEND FEEDBACK

Daily
Averages
Monthly
Summary
United States of America

SUNSHINE, ALASKA


Home > North America > United States > Alaska
Elevation: 385 feet     Latitude: 62 18N     Longitude: 150 06W

WEATHER
 
SELECT A DAY
Number of Records: 201,430;   Date Range: 1/1/95 - 12/26/14
 
SHARE

PRINT THIS DATA

[ ← Previous Day ]
WEATHER ALMANAC - FEBRUARY 13, 2013
[ Next Day → ]
[ °C ]   °F
Weather ElementAverageHighLow
Temperature26 °F28 °F (2:53 pm)23 °F (9:19 am)
Dewpoint20.7 °F25 °F (1:53 pm)15.1 °F (11:53 pm)
Humidity80.8 %93 % (11:57 am)58 % (11:53 pm)
Barometer29.81 in29.85 in (10:53 am)29.73 in (11:53 pm)
Wind Speed6.2 mph12.7 mph (7:53 pm)
Wind Gust19.6 mph (10:53 pm)
Weather ElementAverage
Visibility6.2 mi
Wind DirectionENE (55.3 °)

Weather ElementTotal
Precipitation0.09 in
Heating Degree Days39.5 (Base 65)
Averaged from 36 records on February 13, 2013
WEATHER CONDITIONS BREAKOUT
WIND DIRECTION BREAKOUT
WEATHER BY HOUR - FEBRUARY 13, 2013
[ °C ]   °F
Local TimeTemperatureDewpointHumidityBarometerVisibilityWind DirectionWind SpeedGust SpeedPrecipitationEventsConditions
1:53 AM24.1 °F21.9 °F91 %29.80 in10.0 miNNW (340°)6.9 mphOvercast
3:53 AM24.1 °F19.9 °F84 %29.80 in10.0 miNorth (360°)6.9 mphOvercast
4:53 AM25.0 °F18.0 °F75 %29.80 in10.0 miNorth (360°)6.9 mphOvercast
5:53 AM24.1 °F21.0 °F88 %29.81 in10.0 miCalmOvercast
6:53 AM26.1 °F18.0 °F71 %29.80 in10.0 miNorth (10°)5.8 mphOvercast
7:53 AM25.0 °F19.0 °F78 %29.80 in10.0 miCalmOvercast
8:53 AM25.0 °F19.0 °F78 %29.82 in9.0 miCalmOvercast
9:19 AM23.0 °F19.4 °F86 %29.80 in2.5 miCalm0.00 inSnowLight Snow
9:26 AM24.8 °F21.2 °F86 %29.81 in0.8 miCalm0.00 inSnowLight Snow
9:53 AM24.1 °F21.0 °F88 %29.84 in0.5 miCalm0.01 inFog-SnowSnow
10:27 AM24.8 °F21.2 °F86 %29.82 in1.2 miNNE (30°)4.6 mph0.01 inSnowLight Snow
10:53 AM25.0 °F21.9 °F88 %29.85 in3.0 miNNE (30°)6.9 mph0.02 inSnowLight Snow
10:59 AM24.8 °F21.2 °F86 %29.83 in2.5 miNNE (20°)6.9 mph0.00 inSnowLight Snow
11:09 AM24.8 °F21.2 °F86 %29.83 in1.8 miNNE (20°)6.9 mph0.00 inSnowLight Snow
11:18 AM24.8 °F21.2 °F86 %29.83 in2.0 miNNE (30°)6.9 mph0.00 inSnowLight Snow
11:29 AM24.8 °F21.2 °F86 %29.83 in3.0 miNNE (30°)8.1 mph0.00 inSnowLight Snow
11:32 AM24.8 °F21.2 °F86 %29.83 in1.8 miNNE (20°)5.8 mph0.00 inSnowLight Snow
11:53 AM25.0 °F21.9 °F88 %29.85 in3.0 miNNE (20°)6.9 mph0.00 inSnowLight Snow
11:57 AM24.8 °F23.0 °F93 %29.83 in1.8 miNNE (20°)6.9 mph0.00 inSnowLight Snow
12:10 PM26.6 °F23.0 °F86 %29.83 in1.0 miNNE (20°)6.9 mph0.00 inSnowLight Snow
12:18 PM26.6 °F23.0 °F86 %29.83 in0.8 miNNE (20°)5.8 mph0.01 inSnowLight Snow
12:28 PM26.6 °F23.0 °F86 %29.83 in1.8 miNNE (20°)6.9 mph0.01 inSnowLight Snow
12:33 PM26.6 °F23.0 °F86 %29.83 in3.0 miNNE (20°)6.9 mph0.01 inSnowLight Snow
12:43 PM26.6 °F23.0 °F86 %29.83 in5.0 miNNE (20°)5.8 mph0.01 inSnowLight Snow
12:53 PM27.0 °F24.1 °F89 %29.85 in9.0 miNorth (10°)6.9 mph0.01 inOvercast
1:53 PM27.0 °F25.0 °F92 %29.85 in8.0 miNorth (360°)3.5 mphPartly Cloudy
2:53 PM28.0 °F24.1 °F85 %29.84 in10.0 miNNE (20°)5.8 mphMostly Cloudy
3:53 PM28.0 °F21.0 °F75 %29.83 in10.0 miNNE (20°)8.1 mphScattered Clouds
4:53 PM28.0 °F21.0 °F75 %29.82 in10.0 miNorth (10°)6.9 mphMostly Cloudy
5:53 PM28.0 °F19.9 °F72 %29.80 in10.0 miNNE (30°)10.4 mphOvercast
6:53 PM28.0 °F18.0 °F66 %29.79 in10.0 miNNE (30°)10.4 mphMostly Cloudy
7:53 PM28.0 °F18.0 °F66 %29.78 in10.0 miNNE (30°)12.7 mph18.4 mphOvercast
8:53 PM28.0 °F18.0 °F66 %29.79 in10.0 miNorth (10°)8.1 mphOvercast
9:53 PM28.0 °F17.1 °F63 %29.76 in10.0 miNNE (30°)10.4 mphOvercast
10:53 PM27.0 °F16.0 °F63 %29.74 in10.0 miNNE (30°)11.5 mph19.6 mphScattered Clouds
11:53 PM28.0 °F15.1 °F58 %29.73 in10.0 miNNE (20°)8.1 mph16.1 mphPartly Cloudy
Hourly data recorded from PATK, located miles away from Sunshine, Alaska







STORIES FROM OUR PARTNERS